Date,TemperatureHighF,TemperatureAvgF,TemperatureLowF,DewpointHighF,DewpointAvgF,DewpointLowF,HumidityHigh,HumidityAvg,HumidityLow,PressureMaxIn,PressureMinIn,WindSpeedMaxMPH,WindSpeedAvgMPH,GustSpeedMaxMPH,PrecipitationSumIn
2013-1-1,47,44,39,43,39,34,99,84,62,29.94,29.79,3,1,7,0.11
2013-1-2,46,39,34,39,35,26,99,86,71,30.13,29.89,3,0,4,0.04
2013-1-3,41,33,25,29,24,22,92,70,56,30.17,30.07,4,0,5,0.00
2013-1-4,49,37,25,33,28,21,98,70,50,30.15,30.03,6,1,9,0.00
2013-1-5,50,38,26,34,28,21,87,68,50,30.28,30.11,4,0,5,0.00
2013-1-6,55,45,37,41,37,33,97,76,55,30.12,29.93,7,1,8,0.02
2013-1-7,50,40,28,38,33,26,96,78,60,30.35,30.04,5,1,7,0.00
2013-1-8,51,38,28,40,34,26,99,86,67,30.37,30.28,4,0,7,0.00
2013-1-9,65,49,34,56,46,33,99,88,74,30.31,30.16,7,1,11,0.00
2013-1-10,61,46,36,49,40,35,99,81,50,30.48,30.28,4,0,6,0.00
2013-1-11,47,42,34,47,41,32,99,96,88,30.41,30.01,4,0,5,0.04
2013-1-12,54,49,46,53,49,45,99,99,97,30.08,30.00,2,0,4,0.00
2013-1-13,69,58,50,65,57,50,99,97,87,30.04,29.91,4,0,7,0.01
2013-1-14,64,57,43,63,56,43,99,97,94,30.17,29.91,5,2,8,0.43
2013-1-15,43,41,39,43,40,39,99,99,98,30.21,30.02,4,1,8,0.66
2013-1-16,44,40,36,44,40,36,99,98,97,30.03,29.82,2,0,4,0.23
2013-1-17,46,40,32,45,40,32,99,98,97,30.04,29.88,4,0,9,0.60
2013-1-18,42,33,28,37,31,27,99,91,65,30.43,30.01,4,0,7,0.45
2013-1-19,55,41,28,39,32,26,99,74,50,30.38,29.97,6,2,10,0.03
2013-1-20,62,48,33,43,36,29,85,64,43,29.97,29.79,8,2,17,0.00
2013-1-21,56,40,26,37,30,21,94,68,45,30.01,29.69,7,1,11,0.00
2013-1-22,33,27,19,22,8,-2,72,46,27,30.20,29.84,9,2,60,19.02
2013-1-23,34,24,12,23,8,1,76,52,27,30.26,30.01,8,1,11,0.00
2013-1-24,30,24,16,24,15,5,96,71,41,30.45,29.92,8,2,12,0.00
2013-1-25,26,20,14,22,14,6,93,77,46,30.45,29.99,4,1,8,0.00
2013-1-26,42,30,22,33,26,20,96,85,67,30.34,29.98,5,0,6,0.04
2013-1-27,42,32,23,30,26,21,97,78,60,30.52,30.34,4,0,6,0.00
2013-1-28,55,43,32,49,38,27,99,85,71,30.41,30.01,7,2,14,0.20
2013-1-29,76,59,45,63,53,44,99,83,62,30.05,29.91,4,1,8,0.00
2013-1-30,72,68,61,66,63,57,96,87,80,29.91,29.19,12,4,21,0.05
2013-1-31,67,47,30,66,36,22,99,67,45,29.87,29.13,10,4,22,0.36
2013-2-1,38,31,20,29,15,8,81,53,33,30.31,29.69,8,2,17,0.00
2013-2-2,38,27,16,29,17,8,95,68,43,30.31,29.90,7,1,13,0.00
2013-2-3,44,35,28,35,29,22,96,78,59,29.90,29.73,7,1,14,0.00
2013-2-4,42,34,22,30,23,18,86,67,54,30.04,29.83,6,1,9,0.00
2013-2-5,60,48,42,43,37,30,79,66,54,29.83,29.72,7,2,11,19.67
2013-2-6,57,43,29,42,36,29,99,78,50,30.24,29.82,4,1,7,0.00
2013-2-7,45,37,29,38,33,28,99,85,71,30.33,30.05,4,1,8,0.06
2013-2-8,50,42,36,46,39,31,99,90,68,30.05,29.64,6,2,14,0.45
2013-2-9,51,38,27,31,26,20,88,63,39,30.29,29.84,6,1,13,0.00
2013-2-10,50,36,22,35,26,-21,87,67,47,30.40,30.15,4,0,6,20.18
2013-2-11,62,52,39,59,50,35,99,94,74,30.16,29.70,8,2,15,0.06
2013-2-12,61,52,40,49,38,34,82,61,39,29.92,29.72,8,1,12,0.00
2013-2-13,50,43,37,43,39,35,99,87,57,29.83,29.53,4,1,7,0.07
2013-2-14,54,40,28,42,36,28,99,86,55,29.95,29.69,4,0,8,0.01
2013-2-15,64,47,30,45,37,30,99,74,37,29.96,29.79,8,1,14,0.00
2013-2-16,42,36,31,39,34,22,99,96,70,29.93,29.74,44,1,44,20.48
2013-2-17,36,29,24,22,14,7,77,54,34,30.14,29.75,8,2,17,0.00
2013-2-18,50,33,17,28,17,8,78,54,30,30.31,30.12,6,1,8,0.00
2013-2-19,49,42,34,49,37,25,99,86,61,30.12,29.68,7,2,10,0.09
2013-2-20,48,38,26,38,26,20,99,64,41,30.06,29.78,8,1,16,0.00
2013-2-21,47,34,24,28,22,15,72,60,47,30.21,30.04,6,1,9,0.00
2013-2-22,38,35,32,35,28,22,98,78,63,30.27,30.11,3,1,5,0.02
2013-2-23,43,39,34,43,38,34,99,98,97,30.11,29.71,3,1,4,0.11
2013-2-24,58,46,34,48,40,26,99,83,61,30.02,29.70,6,1,11,0.00
2013-2-25,46,35,26,31,26,20,89,70,54,30.13,30.02,4,1,7,0.00
2013-2-26,52,40,28,51,38,24,99,95,86,30.12,29.46,7,1,15,0.45
2013-2-27,60,49,37,50,44,35,99,85,57,29.62,29.45,8,2,14,0.01
2013-2-28,50,44,37,42,36,32,99,76,55,29.67,29.54,6,1,11,0.00
2013-3-1,47,40,33,36,32,29,85,72,62,29.80,29.66,4,1,8,0.00
2013-3-2,40,36,30,30,27,25,85,72,66,29.81,29.73,7,1,8,0.00
2013-3-3,46,35,26,30,25,20,89,68,52,29.84,29.70,4,1,9,0.00
2013-3-4,50,35,23,29,22,16,76,60,39,29.96,29.84,7,1,9,0.00
2013-3-5,51,38,26,40,29,19,99,74,47,29.99,29.62,4,1,7,0.30
2013-3-6,39,36,33,38,35,33,99,97,87,29.88,29.33,9,3,16,23.07
2013-3-7,51,41,34,37,33,28,89,73,56,30.08,29.88,8,2,11,0.06
2013-3-8,50,41,33,37,32,28,83,70,59,30.16,30.03,8,3,13,0.00
2013-3-9,62,45,34,38,33,28,84,65,36,30.24,30.14,5,1,9,0.00
2013-3-10,67,48,28,43,33,26,99,65,25,30.24,30.11,4,1,6,0.00
2013-3-11,68,54,41,57,49,41,99,84,65,30.16,29.84,4,1,11,0.00
2013-3-12,69,59,44,65,55,35,99,89,74,29.86,29.55,7,2,14,23.50
2013-3-13,54,43,31,41,34,21,99,73,49,29.99,29.82,8,2,14,0.00
2013-3-14,52,40,28,29,24,21,76,55,34,30.08,29.94,7,2,14,0.00
2013-3-15,60,45,28,42,31,21,80,61,43,30.03,29.72,8,2,14,0.00
2013-3-16,73,55,44,59,49,38,99,82,61,29.77,29.48,2,0,3,0.11
2013-3-17,50,39,33,47,39,32,99,99,97,30.19,29.77,1,0,3,23.61
2013-3-18,36,34,33,36,34,32,99,98,97,30.20,29.78,1,0,2,0.00
2013-3-19,66,46,34,50,34,14,99,71,22,29.88,29.63,6,1,14,0.10
2013-3-20,57,46,29,30,23,12,73,42,25,29.95,29.67,6,1,15,0.00
2013-3-21,49,38,28,32,24,16,94,60,43,29.85,29.62,9,2,11,23.71
2013-3-22,51,37,26,29,22,13,65,53,39,29.92,29.80,6,1,11,0.00
2013-3-23,57,41,26,33,28,21,88,61,35,29.96,29.81,5,1,8,0.00
2013-3-24,41,36,32,36,31,27,99,83,68,29.89,29.53,4,1,8,0.00
2013-3-25,38,35,32,38,34,32,99,98,96,29.62,29.43,4,0,10,0.00
2013-3-26,50,40,31,40,34,30,99,79,56,29.93,29.62,5,1,9,0.00
2013-3-27,53,42,31,37,31,28,93,69,51,30.07,29.93,6,1,12,0.00
2013-3-28,53,43,33,37,32,16,81,65,24,30.16,29.83,6,1,11,0.00
2013-3-29,60,46,35,40,35,28,88,66,44,30.19,30.05,5,1,12,0.00
2013-3-30,65,50,32,42,37,31,98,66,38,30.13,29.99,4,1,8,0.00
2013-3-31,57,50,45,56,46,37,99,89,68,30.02,29.66,4,0,11,0.00
2013-4-1,72,56,44,53,46,32,99,74,48,29.89,29.64,8,2,15,0.00
2013-4-2,58,45,30,32,28,19,88,55,27,30.07,29.88,6,1,15,0.00
2013-4-3,59,44,27,32,25,21,85,52,27,30.28,30.07,5,1,10,0.00
2013-4-4,53,40,29,40,29,21,99,65,42,30.33,29.95,4,0,6,23.71
2013-4-5,67,49,37,48,41,36,99,77,38,29.95,29.74,5,1,10,0.00
2013-4-6,62,50,40,39,35,28,77,56,35,30.22,29.92,5,1,7,0.00
2013-4-7,73,56,34,52,44,32,98,67,44,30.20,29.92,8,1,12,0.00
2013-4-8,84,69,56,60,55,48,85,63,44,30.00,29.88,4,1,8,0.00
2013-4-9,88,75,62,65,60,57,85,62,42,30.01,29.88,4,1,8,0.00
2013-4-10,93,80,67,69,64,60,80,60,42,29.92,29.74,4,2,11,0.00
2013-4-11,88,76,62,69,64,60,92,68,48,29.80,29.66,6,2,14,0.00
2013-4-12,85,74,65,72,66,50,99,78,49,29.66,29.45,5,2,11,0.00
2013-4-13,80,63,46,60,49,46,99,64,42,29.84,29.58,5,1,8,0.00
2013-4-14,77,62,43,53,48,42,97,64,40,30.01,29.84,5,1,8,0.00
2013-4-15,60,60,60,47,47,47,61,61,61,29.99,29.98,2,2,4,0.00
2013-5-14,72,59,37,49,44,36,99,61,42,30.14,29.95,4,1,8,0.00
2013-5-15,90,73,56,70,60,47,76,64,51,29.97,29.66,4,1,11,0.00
2013-5-16,89,75,65,70,66,63,99,76,48,29.86,29.70,4,1,8,0.00
2013-5-17,86,73,62,68,63,56,99,74,48,30.06,29.83,4,0,8,0.00
2013-5-18,69,62,60,60,60,58,99,94,66,30.09,30.01,2,0,5,0.00
2013-5-19,76,72,66,72,68,66,99,90,82,30.04,29.98,2,0,3,0.00
2013-5-20,85,73,64,75,70,64,99,90,68,30.02,29.89,2,0,5,0.00
2013-5-21,85,74,68,76,71,16,99,89,13,29.93,29.81,22,0,46,23.71
2013-5-22,88,78,33,77,72,33,98,85,68,31.13,29.76,4,1,8,23.71
2013-5-23,85,74,69,76,71,67,99,91,66,29.84,29.68,4,0,7,0.00
2013-5-24,69,61,53,67,56,45,99,84,57,30.07,29.67,4,1,8,0.00
2013-5-25,72,58,53,51,46,42,74,65,35,30.15,29.99,4,1,9,0.00
2013-5-26,76,63,53,52,48,45,88,60,37,30.16,30.04,4,0,9,0.00
2013-5-27,76,64,53,62,55,50,96,74,51,30.18,30.07,3,0,5,0.00
2013-5-28,88,73,56,74,66,56,99,80,58,30.10,29.98,6,1,11,0.00
2013-5-29,90,80,70,75,70,66,90,73,56,30.07,30.00,4,1,8,0.00
2013-5-30,92,80,69,75,70,-3,93,74,53,30.13,30.04,10,0,10,23.71
2013-5-31,91,80,68,75,70,66,95,74,52,30.09,29.96,4,0,8,0.00
2013-6-1,92,81,70,76,72,66,93,74,54,29.99,29.86,4,1,11,0.00
2013-6-2,88,78,72,76,71,68,95,82,63,29.89,29.78,4,1,9,0.00
2013-6-3,85,75,72,76,71,69,93,87,68,29.86,29.71,3,0,5,0.00
2013-6-4,81,76,75,70,66,55,84,73,42,30.04,29.85,4,0,8,0.00
2013-6-5,82,78,77,66,59,55,64,53,47,30.08,29.96,4,1,7,0.00
2013-6-6,77,77,77,64,64,64,64,64,64,29.98,29.74,5,1,11,0.00
2013-6-7,77,77,77,64,64,64,64,64,64,29.74,29.45,4,0,6,0.00
2013-6-8,84,78,77,72,66,64,81,68,64,30.00,29.66,3,0,4,0.00
2013-6-9,87,80,77,75,72,70,85,78,64,30.07,29.96,9,0,18,0.00
2013-6-10,80,80,80,74,74,74,82,82,82,29.99,29.73,4,1,8,0.00
2013-6-11,86,81,80,74,73,71,82,76,65,29.80,29.71,4,1,8,0.00
2013-6-12,92,85,79,78,74,71,91,70,61,29.81,29.71,4,0,9,0.00
2013-6-13,93,83,76,79,75,71,96,77,58,29.72,29.42,5,1,11,0.00
2013-6-14,85,85,85,71,71,71,64,64,64,29.89,29.54,4,1,8,0.00
2013-6-15,85,84,84,71,70,66,64,62,54,30.00,29.89,3,0,4,0.00
2013-6-16,90,86,84,75,69,66,63,59,56,29.94,29.82,4,1,11,0.00
2013-6-17,88,88,88,74,74,74,63,63,63,29.90,29.79,3,0,8,0.00
2013-6-18,88,88,88,74,74,74,63,63,63,29.84,29.65,4,0,5,0.00
2013-6-19,88,88,88,74,74,74,63,63,63,30.05,29.77,4,0,6,0.00
2013-6-20,88,88,88,74,74,74,63,63,63,30.17,30.05,5,1,9,0.00
2013-6-21,88,88,88,74,74,74,63,63,63,30.20,30.12,8,1,11,0.00
2013-6-22,88,88,88,74,74,74,63,63,63,30.16,30.06,5,0,8,23.71
2013-6-23,88,88,88,74,74,74,63,63,63,30.09,29.99,4,0,7,0.00
2013-6-24,88,88,88,74,74,74,63,63,63,30.05,29.95,4,0,7,0.00
2013-6-25,88,88,88,74,74,74,63,63,63,29.96,29.82,4,0,7,0.00
2013-6-26,88,88,88,74,74,74,63,63,63,29.85,29.72,4,0,8,0.00
2013-6-27,88,88,88,74,74,74,63,63,63,29.77,29.56,4,0,10,0.00
2013-6-28,88,88,88,74,74,74,63,63,63,29.58,29.40,5,1,11,0.00
2013-6-29,88,88,88,74,74,74,63,63,63,29.62,29.46,4,0,8,0.00
2013-6-30,88,88,88,74,74,74,63,63,63,29.78,29.61,4,0,9,0.00
2013-7-1,88,88,88,74,74,74,63,63,63,29.90,29.76,2,0,7,0.00
2013-7-2,88,88,88,74,74,74,63,63,63,30.11,29.90,4,0,8,0.00
2013-7-3,88,88,88,74,74,74,63,63,63,30.16,30.07,2,0,8,0.00
2013-7-4,88,88,88,74,74,74,63,63,63,30.19,30.08,3,1,6,0.00
2013-7-5,88,88,88,74,74,72,63,63,58,30.18,30.05,4,0,7,23.71
2013-7-6,88,88,88,74,74,74,63,63,63,30.13,30.01,4,0,8,0.00
2013-7-7,88,88,88,74,74,74,63,63,63,30.05,29.93,4,1,10,0.00
2013-7-8,88,88,88,74,74,74,63,63,63,30.02,29.98,2,0,4,0.00
2013-7-9,88,88,88,74,74,74,63,63,63,30.01,29.93,0,0,1,0.00
2013-7-10,88,88,88,74,74,74,63,63,63,30.03,29.93,0,0,2,0.00
2013-7-11,88,88,88,74,74,74,63,63,63,30.03,30.03,0,0,2,0.00
2013-7-12,88,88,88,74,74,74,63,63,63,30.03,30.03,0,0,2,0.00
2013-7-13,88,88,88,74,74,74,63,63,63,30.03,30.03,0,0,2,0.00
2013-7-14,88,88,88,74,74,74,63,63,63,30.03,30.03,0,0,2,0.00
2013-7-15,88,88,88,74,74,74,63,63,63,30.03,30.03,0,0,2,0.00
2013-7-16,88,88,88,74,74,74,63,63,63,30.03,30.03,0,0,2,0.00
2013-7-17,88,88,88,74,74,74,63,63,63,30.03,30.03,0,0,2,0.00
2013-7-18,88,88,88,74,74,74,63,63,63,30.03,30.03,0,0,2,0.00
2013-7-19,88,88,88,74,74,74,63,63,63,30.03,30.03,0,0,2,0.00
2013-7-20,88,88,88,74,74,74,63,63,63,30.03,30.03,0,0,2,0.00
2013-7-21,88,88,88,74,74,74,63,63,63,30.03,30.03,0,0,2,0.00
2013-7-22,88,88,88,74,74,74,63,63,63,30.03,30.03,0,0,2,0.00
2013-7-23,88,88,88,74,74,74,63,63,63,30.03,30.03,0,0,2,0.00
2013-7-24,88,88,88,82,78,74,81,73,63,30.03,30.03,0,0,48,0.00
2013-7-25,88,88,88,82,82,82,81,81,81,30.03,30.03,0,0,48,0.00
2013-7-26,88,88,88,82,82,82,81,81,81,30.03,30.03,0,0,48,0.00
2013-7-27,88,88,88,82,82,82,81,81,81,30.03,30.03,0,0,48,0.00
2013-7-28,88,88,88,82,82,82,81,81,81,30.03,30.03,0,0,48,0.00
2013-7-29,88,88,88,82,16,-100,81,52,1,30.03,30.03,0,0,48,0.00
2013-7-30,88,88,88,-100,-100,-100,1,1,1,30.03,30.03,0,0,48,0.00
2013-7-31,88,88,88,-100,-100,-100,1,1,1,30.03,30.03,0,0,48,0.00
2013-8-1,88,88,88,82,-31,-100,81,31,1,30.03,30.03,0,0,48,0.00
2013-8-2,88,88,88,82,82,82,81,81,81,30.03,30.03,0,0,48,0.00
2013-8-3,88,88,88,82,82,82,81,81,81,30.03,30.03,0,0,48,0.00
2013-8-4,88,88,88,82,82,82,81,81,81,30.03,30.03,0,0,48,0.00
2013-8-5,88,88,88,82,82,82,81,81,81,30.03,30.03,0,0,48,0.00
2013-8-6,88,88,88,82,82,82,81,81,81,30.03,30.03,0,0,48,0.00
2013-8-7,88,88,88,82,82,82,81,81,81,30.03,30.03,0,0,48,0.00
2013-8-8,88,88,88,82,82,82,81,81,81,30.03,30.03,0,0,48,0.00
2013-8-9,88,88,88,82,82,82,81,81,81,30.03,30.03,0,0,48,0.00
2013-8-10,88,88,88,82,82,82,81,81,81,30.03,30.03,0,0,48,0.00
2013-8-11,88,88,88,82,82,82,81,81,81,30.03,30.03,0,0,48,0.00
2013-8-12,88,88,88,82,82,82,81,81,81,30.03,30.03,0,0,48,0.00
2013-8-13,88,88,88,82,82,82,81,81,81,30.03,30.03,0,0,48,0.00
2013-8-14,88,88,88,82,82,82,81,81,81,30.03,30.03,0,0,48,0.00
2013-8-15,88,88,88,82,82,82,81,81,81,30.03,30.03,0,0,48,0.00
2013-8-16,88,88,88,82,82,82,81,81,81,30.03,30.03,0,0,48,0.00
2013-8-17,88,88,88,82,82,82,81,81,81,30.03,30.03,0,0,48,0.00
2013-8-18,88,88,88,82,82,82,81,81,81,30.03,30.03,0,0,48,0.00
2013-8-19,88,88,88,82,82,82,81,81,81,30.03,30.03,0,0,48,0.00
2013-8-20,88,88,88,82,82,82,81,81,81,30.03,30.03,0,0,48,0.00
2013-8-21,88,88,88,82,82,82,81,81,81,30.03,30.03,0,0,48,0.00
2013-8-22,88,88,88,82,82,82,81,81,81,30.03,30.03,0,0,48,0.00
2013-8-23,88,88,88,82,82,82,81,81,81,30.03,30.03,0,0,48,0.00
2013-8-24,88,88,88,82,82,82,81,81,81,30.03,30.03,0,0,48,0.00
2013-8-25,88,88,88,82,82,82,81,81,81,30.03,30.03,0,0,48,0.00
2013-8-26,88,88,88,82,82,82,81,81,81,30.03,30.03,0,0,48,0.00
2013-8-27,88,88,88,82,82,82,81,81,81,30.03,30.03,0,0,48,0.00
2013-8-28,88,88,88,82,82,82,81,81,81,30.03,30.03,0,0,48,0.00
2013-8-29,88,88,88,82,82,82,81,81,81,30.03,30.03,0,0,48,0.00
2013-8-30,88,88,88,82,82,82,81,81,81,30.03,30.03,0,0,48,0.00
2013-8-31,88,88,88,82,82,82,81,81,81,30.03,30.03,0,0,48,0.00
2013-9-1,88,88,88,82,82,82,81,81,81,30.03,30.03,0,0,48,0.00
2013-9-2,88,88,88,82,82,82,81,81,81,30.03,30.03,0,0,48,0.00
2013-9-3,88,88,88,82,82,82,81,81,81,30.03,30.03,0,0,48,0.00
2013-9-4,88,88,88,82,82,82,81,81,81,30.03,30.03,0,0,48,0.00
2013-9-5,88,88,88,82,82,82,81,81,81,30.03,30.03,0,0,48,0.00
2013-9-6,88,88,88,82,82,82,81,81,81,30.03,30.03,0,0,48,0.00
2013-9-7,88,88,88,82,82,82,81,81,81,30.03,30.03,0,0,48,0.00
2013-9-8,88,88,88,82,60,-100,81,71,81,30.03,30.03,0,0,48,0.00
2013-9-9,88,88,88,-100,-100,-100,0,0,100,30.03,30.03,0,0,48,0.00
2013-9-10,88,88,88,-100,-100,-100,0,0,100,30.03,30.03,0,0,48,0.00
2013-9-11,88,88,88,-100,-100,-100,0,0,100,30.03,30.03,0,0,48,0.00
2013-9-12,88,88,88,-100,-100,-100,0,0,100,30.03,30.03,0,0,48,0.00
2013-9-13,88,88,88,-100,-100,-100,0,0,100,30.03,30.03,0,0,48,0.00
2013-9-14,88,88,88,-100,-100,-100,0,0,100,30.03,30.03,0,0,48,0.00
2013-9-15,88,88,88,-100,-100,-100,0,0,100,30.03,30.03,0,0,48,0.00
2013-9-16,88,88,88,-100,-100,-100,0,0,100,30.03,30.03,0,0,48,0.00
2013-9-17,88,88,88,-100,-100,-100,0,0,100,30.03,30.03,0,0,48,0.00
2013-9-18,88,88,88,-100,-100,-100,0,0,100,30.03,30.03,0,0,48,0.00
2013-9-19,88,88,88,-100,-100,-100,0,0,100,30.03,30.03,0,0,48,0.00
2013-9-20,88,88,88,-100,-100,-100,0,0,100,30.03,30.03,0,0,48,0.00
2013-9-21,88,88,88,-100,-100,-100,0,0,100,30.03,30.03,0,0,48,0.00
2013-9-22,88,88,88,-100,-100,-100,0,0,100,30.03,30.03,0,0,48,0.00
2013-9-23,88,88,88,-100,-100,-100,0,0,100,30.03,30.03,0,0,48,0.00
2013-9-24,88,88,88,-100,-100,-100,0,0,100,30.03,30.03,0,0,48,0.00
2013-9-25,88,88,88,-100,-100,-100,0,0,100,30.03,30.03,0,0,48,0.00
2013-9-26,88,88,88,-100,-100,-100,0,0,100,30.03,30.03,0,0,48,0.00
2013-9-27,88,88,88,-100,-100,-100,0,0,100,30.03,30.03,0,0,48,0.00
2013-9-28,88,88,88,-100,-100,-100,0,0,100,30.03,30.03,0,0,48,0.00
2013-9-29,88,88,88,-100,-100,-100,0,0,100,30.03,30.03,0,0,48,0.00
2013-9-30,88,88,88,-100,-100,-100,0,0,100,30.03,30.03,0,0,48,0.00
2013-10-1,88,88,88,-100,-100,-100,0,0,100,30.03,30.03,0,0,48,0.00
2013-10-2,88,88,88,-100,-100,-100,0,0,100,30.03,30.03,0,0,48,0.00
2013-10-3,88,88,88,-100,-100,-100,0,0,100,30.03,30.03,0,0,48,0.00
2013-10-4,88,88,88,-100,-100,-100,0,0,100,30.03,30.03,0,0,48,0.00
2013-10-5,88,88,88,-100,-100,-100,0,0,100,30.03,30.03,0,0,48,0.00
2013-10-6,88,88,88,-100,-100,-100,0,0,100,30.03,30.03,0,0,48,0.00
2013-10-7,88,88,88,-100,-100,-100,0,0,100,30.03,30.03,0,0,48,0.00
2013-10-8,88,88,88,-100,-100,-100,0,0,100,30.03,30.03,0,0,48,0.00
2013-10-9,88,88,88,-100,-100,-100,0,0,100,30.03,30.03,0,0,48,0.00
2013-10-10,88,88,88,-100,-100,-100,0,0,100,30.03,30.03,0,0,48,0.00
2013-10-11,88,88,88,-100,-100,-100,0,0,100,30.03,30.03,0,0,48,0.00
2013-10-12,88,88,88,-100,-100,-100,0,0,100,30.03,30.03,0,0,48,0.00
2013-10-13,88,88,88,-100,-100,-100,0,0,100,30.03,30.03,0,0,48,0.00
2013-10-14,88,88,88,-100,-100,-100,0,0,100,30.03,30.03,0,0,48,0.00
2013-10-15,88,88,88,-100,-100,-100,0,0,100,30.03,30.03,0,0,48,0.00
2013-10-16,88,88,88,-100,-100,-100,0,0,100,30.03,30.03,0,0,48,0.00
2013-10-17,88,88,88,-100,-100,-100,0,0,100,30.03,30.03,0,0,48,0.00
2013-10-18,88,88,88,-100,-100,-100,0,0,100,30.03,30.03,0,0,48,0.00
2013-10-19,88,88,88,-100,-100,-100,0,0,100,30.03,30.03,0,0,48,0.00
2013-10-20,88,88,88,-100,-100,-100,0,0,100,30.03,30.03,0,0,48,0.00
2013-10-28,88,88,88,-100,-100,-100,0,0,100,30.03,30.03,0,0,48,0.00
2013-10-29,88,88,88,-100,-100,-100,1,1,1,30.03,30.03,0,0,48,0.00
2013-10-30,88,88,88,-100,-100,-100,1,1,1,30.03,30.03,0,0,48,0.00
2013-10-31,88,88,88,-100,-100,-100,1,1,1,30.03,30.03,0,0,48,0.00
2013-11-1,88,88,88,-100,-100,-100,1,1,1,30.03,30.03,0,0,48,0.00
2013-11-2,88,88,88,-100,-100,-100,1,1,1,30.03,30.03,0,0,48,0.00
2013-11-3,88,88,88,-100,-100,-100,1,1,1,30.03,30.03,0,0,48,0.00
2013-11-4,88,88,88,-100,-100,-100,1,1,1,30.03,30.03,0,0,48,0.00
2013-11-5,88,88,88,-100,-100,-100,1,1,1,30.03,30.03,0,0,48,0.00
2013-11-6,88,88,88,-100,-100,-100,1,1,1,30.03,30.03,0,0,48,0.00
2013-11-7,88,88,88,-100,-100,-100,1,1,1,30.03,30.03,0,0,48,0.00
2013-11-8,88,88,88,-100,-100,-100,1,1,1,30.03,30.03,0,0,48,0.00
2013-11-9,88,88,88,-100,-100,-100,1,1,1,30.03,30.03,0,0,48,0.00
2013-11-10,88,88,88,-100,-100,-100,1,1,1,30.03,30.03,0,0,48,0.00
2013-11-11,88,88,88,-100,-100,-100,1,1,1,30.03,30.03,0,0,48,0.00
2013-11-12,88,88,88,-100,-100,-100,1,1,1,30.03,30.03,0,0,48,0.00
2013-11-13,88,88,88,-100,-100,-100,1,1,1,30.03,30.03,0,0,48,0.00
2013-11-14,88,88,88,-100,-100,-100,1,1,1,30.03,30.03,0,0,48,0.00
2013-11-15,88,88,88,-100,-100,-100,1,1,1,30.03,30.03,0,0,48,0.00
2013-11-16,88,88,88,-100,-100,-100,1,1,1,30.03,30.03,0,0,48,0.00
2013-11-17,88,88,88,-100,-100,-100,1,1,1,30.03,30.03,0,0,48,0.00
2013-11-18,88,88,88,-100,-100,-100,1,1,1,30.03,30.03,0,0,48,0.00
2013-11-19,88,88,88,-100,-100,-100,1,1,1,30.03,30.03,0,0,48,0.00
2013-11-20,88,88,88,-100,-100,-100,1,1,1,30.03,30.03,0,0,48,0.00
2013-11-21,88,88,88,-100,-100,-100,1,1,1,30.03,30.03,0,0,48,0.00
2013-11-22,88,88,88,-100,-100,-100,0,0,100,30.03,30.03,0,0,48,0.00
2013-11-23,88,88,88,-100,-100,-100,0,0,100,30.03,30.03,0,0,48,0.00
2013-11-24,88,81,77,-100,-100,-100,0,0,100,30.03,30.03,0,0,48,0.00
2013-11-25,77,77,77,-100,-100,-100,0,0,100,30.03,30.03,0,0,48,74.07
2013-11-26,77,77,77,-100,-100,-100,0,0,100,30.03,30.03,0,0,48,74.07
2013-11-27,77,77,77,-100,-100,-100,0,0,100,30.03,30.03,0,0,48,74.07
2013-11-28,77,77,77,-100,-100,-100,0,0,100,30.03,30.03,0,0,48,74.07
2013-11-29,77,77,77,-100,-100,-100,0,0,100,30.03,30.03,0,0,48,74.07
2013-11-30,77,77,77,-100,-100,-100,0,0,100,30.03,30.03,0,0,48,74.07
2013-12-1,77,77,77,-100,-100,-100,0,0,100,30.03,30.03,0,0,48,74.07
2013-12-2,77,77,77,-100,-100,-100,0,0,100,30.03,30.03,0,0,48,74.07
2013-12-3,77,77,77,-100,-100,-100,0,0,100,30.03,30.03,0,0,48,74.07
2013-12-4,77,77,77,-100,-100,-100,0,0,100,30.03,30.03,0,0,48,74.07
2013-12-5,77,77,77,-100,-100,-100,0,0,100,30.03,30.03,0,0,48,74.07
2013-12-6,77,77,77,-100,-100,-100,0,0,100,30.03,30.03,0,0,48,74.07
2013-12-7,77,77,77,-100,-100,-100,0,0,100,30.03,30.03,0,0,48,74.07
2013-12-8,77,77,77,-100,-100,-100,0,0,100,30.03,30.03,0,0,48,74.07
2013-12-9,77,77,77,-100,-100,-100,0,0,100,30.03,30.03,0,0,48,74.07
2013-12-10,77,77,77,-100,-100,-100,0,0,100,30.03,30.03,0,0,48,74.07
2013-12-11,77,77,77,-100,-100,-100,0,0,100,30.03,30.03,0,0,48,74.07
2013-12-12,77,77,77,-100,-100,-100,0,0,100,30.03,30.03,0,0,48,74.07
2013-12-13,77,77,77,-100,-100,-100,0,0,100,30.03,30.03,0,0,48,74.07
2013-12-14,77,77,77,-100,-100,-100,0,0,100,30.03,30.03,0,0,48,74.07
2013-12-15,77,77,77,-100,-100,-100,0,0,100,30.03,30.03,0,0,48,74.07
2013-12-16,77,77,77,-100,-100,-100,0,0,100,30.03,30.03,0,0,48,0.00
2013-12-17,77,77,77,-100,-100,-100,0,0,100,30.03,30.03,0,0,48,0.00
2013-12-18,77,77,77,-100,-100,-100,0,0,100,30.03,30.03,0,0,48,0.00
2013-12-19,77,77,77,-100,-100,-100,0,0,100,30.03,30.03,0,0,48,0.00
2013-12-20,77,77,77,-100,-100,-100,0,0,100,30.03,30.03,0,0,48,0.00
2013-12-21,77,77,77,-100,-100,-100,0,0,100,30.03,30.03,0,0,48,0.00
2013-12-22,77,77,77,-100,-100,-100,0,0,100,30.03,30.03,0,0,48,0.00
2013-12-23,77,77,77,-100,-100,-100,0,0,100,30.03,30.03,0,0,48,0.00
2013-12-24,77,77,77,-100,-100,-100,0,0,100,30.03,30.03,0,0,48,0.00
2013-12-25,77,77,77,-100,-100,-100,0,0,100,30.03,30.03,0,0,48,0.00
2013-12-26,77,77,77,-100,-100,-100,0,0,100,30.03,30.03,0,0,48,0.00
2013-12-27,77,77,77,-100,-100,-100,0,0,100,30.03,30.03,0,0,48,0.00
2013-12-28,77,77,77,-100,-100,-100,0,0,100,30.03,30.03,0,0,48,0.00
2013-12-29,77,77,77,-100,-100,-100,0,0,100,30.03,30.03,0,0,48,0.00
2013-12-30,77,77,77,-100,-100,-100,0,0,100,30.03,30.03,0,0,48,0.00
2013-12-31,77,77,77,-100,-100,-100,0,0,100,30.03,30.03,0,0,48,0.00
2014-1-1,77,77,77,-100,-100,-100,0,0,100,30.03,30.03,0,0,48,0.00
2014-1-2,77,77,77,-100,-100,-100,0,0,100,30.03,30.03,0,0,48,0.00